Погода в Мостовом

Украина / Николаевская область     47˚25′01″N   30˚59′17″E
темп.,
°C
ветер,
м/с
пор.,
м/с
влажн.,
%
обл.,
%
осадки,
мм/ч
давл.,
гПа
погр.,
м
17 января, вс
вс1723:00−11˚с47750 0.0 1017560
02:00−12˚ссв35775 0.0 1016446
05:00−13˚с477881 0.0 1016445
08:00−13˚с477774 0.0 1016414
11:00−11˚ссв45669 0.0 1017576
14:00−9˚ссз56625 0.0 1015522
17:00−10˚с35750 0.0 1015213
20:00−11˚всв23810 0.0 1016106
18 января, пн
пн1823:00−11˚вюв118291 0.0 1017105
02:00−11˚ссв018484 0.0 1017125
05:00−12˚ссв228795 0.1 1017174
08:00−12˚ссв348597 0.1 1018327
11:00−11˚ссз347088 0.0 1019691
14:00−10˚сз456894 0.0 1019800
17:00−10˚сз2574100 0.0 1020607
20:00−11˚ссз257799 0.0 1020372
19 января, вт
вт1923:00−11˚ссз3479100 0.0 1021576
02:00−12˚сз357994 0.0 1021691
05:00−13˚сз4679100 0.0 1021647
08:00−14˚сз367976 0.0 1022485
11:00−11˚сз45670 0.0 1023505
14:00−9˚зсз35590 0.0 1022657
17:00−10˚зсз12690 0.0 102221
20:00−10˚юз12720 0.0 102221
20 января, ср
ср2023:00−10˚ююз22739 0.0 102321
02:00−11˚ю228014 0.0 102323
05:00−10˚ююв338324 0.0 102246
08:00−10˚юв358244 0.0 102398
11:00−5˚юв478449 0.0 1023290
14:00−3˚юв578349 0.0 1022340
17:00−4˚вюв599584 0.0 1022243
20:00−5˚юв499784 0.0 1023221
21 января, чт
чт2123:00−3˚юв499898 0.0 1022240
02:00−2˚юв489899 0.0 1022247
05:00−1˚юв4798100 0.0 1021188
08:00−2˚юв3698100 0.0 1022153
11:00+1˚ююв358848 0.0 1022237
14:00+4˚ю368128 0.0 1021394
17:00+1˚ююв349319 0.0 102036
20:00ю349515 0.0 102175